Skip Page Navigation
NASA JPL Caltech
NASA Logo - Jet Propulsion Laboratory + View the NASA Portal
+ Center for Near-Earth Object Studies
JPL Home Earth Solar System Stars & Galaxies Technology
JPL Solar System Dynamics
BODIES ORBITS EPHEMERIDES TOOLS PHYSICAL DATA DISCOVERY FAQ SITE MAP
JPL Small-Body Database Browser
Search: [ help ]  
136416 (2005 CY43)
Classification: Main-belt Asteroid          SPK-ID: 2136416
Ephemeris | Orbit Diagram | Orbital Elements | Mission Design | Physical Parameters | Discovery Circumstances | Close-Approach Data ]

[ show orbit diagram ]
Orbital Elements at Epoch 2459396.5 (2021-Jul-01.0) TDB
Reference: JPL 22 (heliocentric ecliptic J2000)
 Element Value Uncertainty (1-sigma)   Units 
e .2884149562527447 3.6362e-08  
a 2.727422018576271 1.6145e-08 au
q 1.940792716405823 9.5034e-08 au
i 13.45701477100356 6.2085e-06 deg
node 334.6750533883799 1.922e-05 deg
peri 309.133760686623 2.2556e-05 deg
M 118.6111335839924 1.366e-05 deg
tp 2458854.436835623617
(2020-Jan-05.93683562)
5.9964e-05 TDB
period 1645.231212947736
4.50
1.4608e-05
3.999e-08
d
yr
n .2188142293720488 1.9429e-09 deg/d
Q 3.514051320746719 2.0801e-08 au
  Orbit Determination Parameters
   # obs. used (total)      612  
   data-arc span      7224 days (19.78 yr)  
   first obs. used      2001-04-01  
   last obs. used      2021-01-10  
   planetary ephem.      DE441  
   SB-pert. ephem.      SB441-N16  
   condition code      0  
   norm. resid. RMS      .47692  
   source      ORB  
   producer      Otto Matic  
   solution date      2021-Apr-13 18:17:20  

Additional Information
 Earth MOID = .954946 au 
 Jupiter MOID = 1.85193 au 
 T_jup = 3.256 
[ hide covariance matrix ]
Orbital Elements at Epoch 2457818.5 (2017-Mar-06.0) TDB
Reference: JPL 22 (heliocentric ecliptic J2000)
 Element Value Uncertainty (1-sigma)   Units 
e .2880745145374017 3.6308e-08  
q 1.942216331659302 9.4942e-08 au
tp 2457209.443098334861
(2015-Jul-05.94309834)
5.4746e-05 TDB
node 334.7132825160451 1.9229e-05 deg
peri 309.1861542611518 2.2576e-05 deg
i 13.45140900369926 6.2076e-06 deg
  Orbit Determination Parameters
   # obs. used (total)      612  
   data-arc span      7224 days (19.78 yr)  
   first obs. used      2001-04-01  
   last obs. used      2021-01-10  
   planetary ephem.      DE441  
   SB-pert. ephem.      SB441-N16  
   condition code      0  
   norm. resid. RMS      .47692  
   source      ORB  
   producer      Otto Matic  
   solution date      2021-Apr-13 18:17:20  

Additional Information
 Jupiter MOID = 1.85193 au 
 T_jup = 3.256 
Orbit Covariance (6×6)
  e q tp node peri i
e 1.318256086806532E-15 -3.425986641102688E-15 7.070661937425292E-13 6.699665282168731E-15 1.271951282029216E-13 -6.32052966220118E-16
q -3.425986641102688E-15 9.013932003874269E-15 -1.77331443837278E-12 -9.868440386787091E-15 -3.103123678140523E-13 4.283343118454044E-15
tp 7.070661937425292E-13 -1.77331443837278E-12 2.997079988046587E-9 -2.227215239088699E-12 6.72777740632459E-10 -1.446729462948488E-11
node 6.699665282168731E-15 -9.868440386787091E-15 -2.227215239088699E-12 3.697662753877732E-10 -3.581979319227566E-10 5.841469659589435E-11
peri 1.271951282029216E-13 -3.103123678140523E-13 6.72777740632459E-10 -3.581979319227566E-10 5.096883822493892E-10 -5.940609501967582E-11
i -6.32052966220118E-16 4.283343118454044E-15 -1.446729462948488E-11 5.841469659589435E-11 -5.940609501967582E-11 3.853421296315669E-11

Ephemeris | Orbit Diagram | Orbital Elements | Mission Design | Physical Parameters | Discovery Circumstances | Close-Approach Data ]

Physical Parameter Table
Parameter Symbol Value Units Sigma Reference Notes
absolute magnitude H 15.48   n/a E2021B55  
diameter diameter 2.358 km 0.566 urn:nasa:pds:neowise_diameters_albedos::2.0[mainbelt] (http://adsabs.harvard.edu/abs/2011ApJ...741...68M)  
geometric albedo albedo 0.318   0.109 urn:nasa:pds:neowise_diameters_albedos::2.0[mainbelt] (http://adsabs.harvard.edu/abs/2011ApJ...741...68M)  

136416 (2005 CY43)          Discovered 2005-Feb-02 by Spacewatch at Kitt Peak
Reference: 20060907/Numbers.arcLast Updated: 2006-09-10

[ hide close-approach data ]
Close-Approach Data   ...sorted by Date/Time (TDB)
Date/Time (TDB) Time Uncertainty
(days_HH:MM)
Body Nominal Distance (au) Minimum Distance (au) Maximum Distance (au) V-relative (km/s) V-infinity (km/s) JD (TDB) Time Uncertainty (minutes) Semi-major axis (km) Semi-minor axis (km) range-LOV angle (deg) N-sigma BP Orbit Ref. Reference Modified
1954-Jul-13 23:45 00:02 Jupiter 1.84837632326572 1.84837562572091 1.84837702081032 2.2430883550851 2.02853172876312 2434937.489920284 1.76403204990556 1363.15718181485 58.429842748847 88.7637697762186 1216718.10658445 T 22 CATAB v2.0f-lin.ifort 2021-Apr-13 18:17:22 2021-Apr-13 18:17
1991-Jan-22 14:59 < 00:01 Jupiter 1.94915857849846 1.94915770939959 1.94915944762991 3.31257935983008 3.17868934564165 2448279.124456454 0.732063965970706 847.66424081849 28.7442802223335 -88.4730767698193 1772206.34193299 T 22 CATAB v2.0f-lin.ifort 2021-Apr-13 18:17:22 2021-Apr-13 18:17
2049-Mar-15 14:12 < 00:01 Jupiter 1.8723958603078 1.87239502859558 1.87239669202109 2.0132439180156 1.77437420362479 2469516.091870068 0.94952249173576 736.251182892506 73.4586785467218 87.1148251522275 1514545.87739896 T 22 CATAB v2.0f-lin.ifort 2021-Apr-13 18:17:22 2021-Apr-13 18:17
2085-Sep-29 11:38 00:02 Jupiter 1.88687151103326 1.88687078731377 1.88687223475533 3.17210402301836 3.02728222831868 2482862.984557063 1.76373958268569 555.262775167507 26.4691578847993 -89.9937821686937 1843858.0051051 T 22 CATAB v2.0f-lin.ifort 2021-Apr-13 18:17:22 2021-Apr-13 18:17
2143-Nov-13 02:26 00:04 Jupiter 1.9278909065685 1.92788906690271 1.92789274624984 1.73445263760303 1.45932250532982 2504090.601193661 3.88289568237777 538.043205448167 284.273738047269 42.1501979157492 518768.163307532 T 22 CATAB v2.0f-lin.ifort 2021-Apr-13 18:17:22 2021-Apr-13 18:17
2180-Jun-06 18:12 00:04 Jupiter 1.83841301515222 1.83841217089698 1.83841385941519 3.04262060484746 2.88722509358244 2517446.258602467 4.16255068253125 531.019408339181 22.5738259774904 89.7111144747099 1110950.60351343 T 22 CATAB v2.0f-lin.ifort 2021-Apr-13 18:17:22 2021-Apr-13 18:17

Alternate Designations
 2005 CY43 = 2002 TZ233 
Ephemeris | Orbit Diagram | Orbital Elements | Mission Design | Physical Parameters | Discovery Circumstances | Close-Approach Data ]
ABOUT SSD CREDITS/AWARDS PRIVACY/COPYRIGHT GLOSSARY LINKS
FirstGov 2021-Jul-31 15:05 UT
(server date/time)  
NASA Home Page
Site Manager:   Ryan S. Park
Webmaster  Alan B. Chamberlin